• In Deutschland
  • Länderverzeichnis
  • Für 7 Tage
  • Wassertemperatur
  • Satellitenkarten
  • Wetterkarte
  • Widgets
  • user-avatar
    Anmelden

    Stündliche Wetter Plauen

    Heute, 19 Januar, Freitag

    Zeit Temperatur Niederschläge Wind Luftdruck Luftfeuchtigkeit
    00:00 -2°C° 0 mm 4 m/S 716 mmHg 89%
    01:00 -2°C° 0 mm 4 m/S 717 mmHg 91%
    02:00 -1°C° 0 mm 3 m/S 717 mmHg 92%
    03:00 -2°C° 0 mm 3 m/S 717 mmHg 93%
    04:00 -2°C° 0 mm 2 m/S 716 mmHg 94%
    05:00 -2°C° 0,2 mm 2 m/S 717 mmHg 95%
    06:00 -2°C° 0,2 mm 2 m/S 717 mmHg 95%
    07:00 -2°C° 0,2 mm 2 m/S 717 mmHg 95%
    08:00 -1°C° 0,9 mm 2 m/S 718 mmHg 95%
    09:00 -1°C° 0,9 mm 3 m/S 718 mmHg 94%
    10:00 0°C° 0,9 mm 3 m/S 719 mmHg 93%
    11:00 0°C° 0,8 mm 3 m/S 719 mmHg 92%
    12:00 -1°C° 0,8 mm 4 m/S 720 mmHg 92%
    13:00 -1°C° 0,8 mm 4 m/S 720 mmHg 91%
    14:00 -1°C° 0,6 mm 4 m/S 720 mmHg 90%
    15:00 -1°C° 0,6 mm 5 m/S 721 mmHg 89%
    16:00 -1°C° 0,6 mm 5 m/S 721 mmHg 88%
    17:00 -1°C° 0 mm 4 m/S 721 mmHg 89%
    18:00 -2°C° 0 mm 4 m/S 722 mmHg 90%
    19:00 -3°C° 0 mm 4 m/S 722 mmHg 91%
    20:00 -3°C° 0 mm 4 m/S 722 mmHg 91%
    21:00 -4°C° 0 mm 3 m/S 722 mmHg 92%
    22:00 -4°C° 0 mm 3 m/S 722 mmHg 92%
    23:00 -4°C° 0 mm 3 m/S 722 mmHg 93%

    Morgen, 20 Januar, Samstag

    Zeit Temperatur Niederschläge Wind Luftdruck Luftfeuchtigkeit
    00:00 -4°C° 0 mm 3 m/S 722 mmHg 93%
    01:00 -3°C° 0 mm 4 m/S 722 mmHg 93%
    02:00 -3°C° 0,4 mm 4 m/S 722 mmHg 94%
    03:00 -2°C° 0,4 mm 3 m/S 721 mmHg 94%
    04:00 -1°C° 0,4 mm 3 m/S 721 mmHg 94%
    05:00 -2°C° 0,7 mm 4 m/S 721 mmHg 93%
    06:00 -2°C° 0,7 mm 4 m/S 720 mmHg 92%
    07:00 -2°C° 0,7 mm 4 m/S 720 mmHg 91%
    08:00 -2°C° 0,1 mm 4 m/S 720 mmHg 90%
    09:00 -2°C° 0,1 mm 5 m/S 720 mmHg 89%
    10:00 -2°C° 0,1 mm 5 m/S 720 mmHg 89%
    11:00 -2°C° 0 mm 4 m/S 720 mmHg 87%
    12:00 -1°C° 0 mm 4 m/S 720 mmHg 85%
    13:00 0°C° 0 mm 3 m/S 720 mmHg 84%
    14:00 -1°C° 0 mm 3 m/S 719 mmHg 86%
    15:00 -1°C° 0 mm 2 m/S 719 mmHg 88%
    16:00 +1°C° 0 mm 1 m/S 718 mmHg 90%
    17:00 0°C° 0,1 mm 1 m/S 718 mmHg 91%
    18:00 0°C° 0,1 mm 1 m/S 718 mmHg 92%
    19:00 -1°C° 0,1 mm 1 m/S 717 mmHg 93%
    20:00 0°C° 0,2 mm 1 m/S 718 mmHg 94%
    21:00 0°C° 0,2 mm 1 m/S 718 mmHg 94%
    22:00 0°C° 0,2 mm 1 m/S 718 mmHg 94%
    23:00 -1°C° 0,2 mm 1 m/S 719 mmHg 94%

    übermorgen, 21 Januar, Sonntag

    Zeit Temperatur Niederschläge Wind Luftdruck Luftfeuchtigkeit
    00:00 -1°C° 0,2 mm 1 m/S 719 mmHg 95%
    01:00 -1°C° 0,2 mm 1 m/S 720 mmHg 95%
    02:00 -1°C° 0 mm 1 m/S 720 mmHg 96%
    03:00 -2°C° 0 mm 1 m/S 721 mmHg 96%
    04:00 -4°C° 0 mm 2 m/S 722 mmHg 96%
    05:00 -4°C° 0,1 mm 2 m/S 723 mmHg 96%
    06:00 -4°C° 0,1 mm 2 m/S 723 mmHg 96%
    07:00 -4°C° 0,1 mm 2 m/S 724 mmHg 96%
    08:00 -3°C° 0,1 mm 2 m/S 725 mmHg 95%
    09:00 -3°C° 0,1 mm 2 m/S 725 mmHg 94%
    10:00 -2°C° 0,1 mm 2 m/S 726 mmHg 94%
    11:00 -2°C° 0 mm 2 m/S 726 mmHg 93%
    12:00 -1°C° 0 mm 2 m/S 726 mmHg 92%
    13:00 -1°C° 0 mm 2 m/S 726 mmHg 91%
    14:00 -1°C° 0 mm 2 m/S 726 mmHg 91%
    15:00 -1°C° 0 mm 2 m/S 726 mmHg 91%
    16:00 -1°C° 0 mm 2 m/S 727 mmHg 91%
    17:00 -2°C° 0 mm 2 m/S 727 mmHg 92%
    18:00 -3°C° 0 mm 2 m/S 727 mmHg 92%
    19:00 -4°C° 0 mm 2 m/S 727 mmHg 93%
    20:00 -4°C° 0 mm 2 m/S 726 mmHg 92%
    21:00 -4°C° 0 mm 2 m/S 726 mmHg 92%
    22:00 -5°C° 0 mm 2 m/S 726 mmHg 91%
    23:00 -5°C° 0 mm 2 m/S 726 mmHg 91%

    22 Januar, Montag

    Zeit Temperatur Niederschläge Wind Luftdruck Luftfeuchtigkeit
    00:00 -5°C° 0 mm 2 m/S 725 mmHg 90%
    01:00 -4°C° 0 mm 2 m/S 725 mmHg 89%
    02:00 -5°C° 0,1 mm 3 m/S 725 mmHg 88%
    03:00 -4°C° 0,1 mm 3 m/S 724 mmHg 87%
    04:00 -4°C° 0,1 mm 4 m/S 724 mmHg 87%
    05:00 -3°C° 0,4 mm 4 m/S 723 mmHg 88%
    06:00 -3°C° 0,4 mm 4 m/S 723 mmHg 89%
    07:00 -2°C° 0,4 mm 5 m/S 722 mmHg 90%
    08:00 -2°C° 0,5 mm 5 m/S 722 mmHg 91%
    09:00 -1°C° 0,5 mm 5 m/S 722 mmHg 93%
    10:00 -1°C° 0,5 mm 5 m/S 722 mmHg 94%
    11:00 0°C° 0,4 mm 4 m/S 722 mmHg 96%
    12:00 +1°C° 0,4 mm 4 m/S 721 mmHg 97%
    13:00 +3°C° 0,4 mm 4 m/S 721 mmHg 98%
    14:00 +3°C° 0,4 mm 3 m/S 721 mmHg 98%
    15:00 +3°C° 0,4 mm 3 m/S 721 mmHg 98%
    16:00 +4°C° 0,4 mm 3 m/S 721 mmHg 99%
    17:00 +4°C° 1,7 mm 3 m/S 721 mmHg 98%
    18:00 +4°C° 1,7 mm 3 m/S 720 mmHg 98%
    19:00 +4°C° 1,7 mm 3 m/S 720 mmHg 98%
    20:00 +4°C° 1,4 mm 4 m/S 720 mmHg 98%
    21:00 +5°C° 1,4 mm 5 m/S 720 mmHg 98%
    22:00 +4°C° 1,4 mm 6 m/S 720 mmHg 97%
    23:00 +4°C° 0,6 mm 6 m/S 721 mmHg 97%

    23 Januar, Dienstag

    Zeit Temperatur Niederschläge Wind Luftdruck Luftfeuchtigkeit
    00:00 +3°C° 0,6 mm 6 m/S 723 mmHg 97%
    01:00 +2°C° 0,6 mm 6 m/S 724 mmHg 97%
    02:00 +2°C° 0,1 mm 5 m/S 725 mmHg 96%
    03:00 +2°C° 0,1 mm 5 m/S 726 mmHg 96%
    04:00 +3°C° 0,1 mm 4 m/S 727 mmHg 95%
    05:00 +1°C° 0 mm 4 m/S 728 mmHg 95%
    06:00 +1°C° 0 mm 4 m/S 728 mmHg 94%
    07:00 +1°C° 0 mm 3 m/S 729 mmHg 94%
    08:00 +1°C° 0 mm 4 m/S 729 mmHg 95%
    09:00 +3°C° 0 mm 4 m/S 729 mmHg 95%
    10:00 +4°C° 0 mm 4 m/S 730 mmHg 96%
    11:00 +4°C° 0,1 mm 4 m/S 730 mmHg 95%
    12:00 +4°C° 0,1 mm 4 m/S 730 mmHg 94%
    13:00 +5°C° 0,1 mm 5 m/S 730 mmHg 94%
    14:00 +5°C° 0,1 mm 5 m/S 730 mmHg 93%
    15:00 +5°C° 0,1 mm 5 m/S 730 mmHg 93%
    16:00 +4°C° 0,1 mm 6 m/S 730 mmHg 93%
    17:00 +5°C° 0,1 mm 5 m/S 731 mmHg 93%
    18:00 +5°C° 0,1 mm 5 m/S 731 mmHg 93%
    19:00 +5°C° 0,1 mm 5 m/S 732 mmHg 94%
    20:00 +5°C° 0,1 mm 5 m/S 732 mmHg 94%
    21:00 +5°C° 0,1 mm 5 m/S 733 mmHg 95%
    22:00 +5°C° 0,1 mm 4 m/S 733 mmHg 95%
    23:00 +5°C° 0,1 mm 4 m/S 734 mmHg 96%

    24 Januar, Mittwoch

    Zeit Temperatur Niederschläge Wind Luftdruck Luftfeuchtigkeit
    00:00 +4°C° 0,1 mm 4 m/S 734 mmHg 96%
    01:00 +4°C° 0,1 mm 3 m/S 734 mmHg 96%
    02:00 +4°C° 0 mm 3 m/S 734 mmHg 96%
    03:00 +4°C° 0 mm 3 m/S 734 mmHg 96%
    04:00 +4°C° 0 mm 2 m/S 734 mmHg 96%
    05:00 +4°C° 0 mm 2 m/S 734 mmHg 96%
    06:00 +4°C° 0 mm 2 m/S 735 mmHg 97%
    07:00 +3°C° 0 mm 2 m/S 735 mmHg 97%
    08:00 +4°C° 0 mm 2 m/S 735 mmHg 96%
    09:00 +3°C° 0 mm 3 m/S 735 mmHg 96%
    10:00 +4°C° 0 mm 3 m/S 735 mmHg 95%
    11:00 +4°C° 0 mm 3 m/S 735 mmHg 94%
    12:00 +5°C° 0 mm 3 m/S 735 mmHg 92%
    13:00 +5°C° 0 mm 3 m/S 734 mmHg 91%
    14:00 +5°C° 0 mm 3 m/S 734 mmHg 92%
    15:00 +6°C° 0 mm 2 m/S 734 mmHg 92%
    16:00 +5°C° 0 mm 2 m/S 734 mmHg 93%
    17:00 +5°C° 0 mm 2 m/S 734 mmHg 94%
    18:00 +4°C° 0 mm 2 m/S 734 mmHg 94%
    19:00 +3°C° 0 mm 2 m/S 733 mmHg 94%
    20:00 +3°C° 0 mm 2 m/S 733 mmHg 93%
    21:00 +3°C° 0 mm 2 m/S 733 mmHg 93%
    22:00 +3°C° 0 mm 2 m/S 733 mmHg 92%
    23:00 +3°C° 0 mm 2 m/S 733 mmHg 91%
    Mehr zeigen